Skip Page Navigation
NASA JPL Caltech
NASA Logo - Jet Propulsion Laboratory + View the NASA Portal
+ Near-Earth Object (NEO) Program
Search JPL
JPL Home Earth Solar System Stars & Galaxies Technology
JPL Solar System Dynamics
BODIES ORBITS EPHEMERIDES TOOLS PHYSICAL DATA DISCOVERY FAQ SITE MAP
JPL Small-Body Database Browser
Search: [ help ]  
5839 GOI (1974 SJ3)
Classification: Main-belt Asteroid          SPK-ID: 2005839
Ephemeris | Orbit Diagram | Orbital Elements | Physical Parameters | Discovery Circumstances ]

[ show orbit diagram ]
Orbital Elements at Epoch 2457000.5 (2014-Dec-09.0) TDB
Reference: JPL 6 (heliocentric ecliptic J2000)
 Element Value Uncertainty (1-sigma)   Units 
e .08241542380861641 9.649e-08  
a 2.761024458568038 2.8584e-08 AU
q 2.533473457669197 2.6459e-07 AU
i 16.95373648370562 1.0152e-05 deg
node 4.760571261602199 2.1813e-05 deg
peri 142.7223588978447 5.0053e-05 deg
M 139.0635277451493 4.2046e-05 deg
tp 2456353.186671860043
(2013-Mar-01.68667186)
0.00019729 JED
period 1675.729085180734
4.59
2.6023e-05
7.125e-08
d
yr
n .2148318622524671 3.3362e-09 deg/d
Q 2.988575459466878 3.094e-08 AU
  Orbit Determination Parameters
   # obs. used (total)      896  
   data-arc span      23038 days (63.07 yr)  
   first obs. used      1951-08-08  
   last obs. used      2014-09-04  
   planetary ephem.      DE431  
   SB-pert. ephem.      SB431-BIG16  
   condition code      0  
   fit RMS      .46171  
   data source      ORB  
   producer      Otto Matic  
   solution date      2014-Oct-09 14:05:21  

Additional Information
 Earth MOID = 1.55875 AU 
 T_jup = 3.273 
[ show covariance matrix ]

Ephemeris | Orbit Diagram | Orbital Elements | Physical Parameters | Discovery Circumstances ]

Physical Parameter Table
Parameter Symbol Value Units Sigma Reference Notes
absolute magnitude H 11.6 mag n/a MPO263400  
rotation period rot_per 6.303 h n/a Asteroid Lightcurve DataBase (Rev. 2014-Mar-01) Published Reference List:
[Ditteon, R.; Kirkpatrick, E.; Doering, K. (2010) Minor Planet Bul. 37, 1-4.]

5839 GOI           Discovered 1974 Sept. 21 by N. S. Chernykh at the Crimean Astrophysical Observatory.
Named for Gosudarstvennyj Opticheskij Institut, the State Optical Institute, and its first director, academician Dmitrij Sergeevich Rozhdestvenskij (1876-1940), an outstanding physicist-optician. The institute has undertaken important investigations in the field of physical and applied optics. The name is given on the occasion of the 80th anniversary of its founding (1918 Dec. 15).
NOTE: some special characters may not display properly (any characters within {} are an attempt to place the proper accent above a character)
Reference: 19980808/MPCPages.arcLast Updated: 2009-11-17

Alternate Designations
 1974 SJ3 = 1956 TP = 1979 SY10 = 1979 VA1 = 1986 GP = 1988 RE14 = 1990 BG2 
Ephemeris | Orbit Diagram | Orbital Elements | Physical Parameters | Discovery Circumstances ]
ABOUT SSD CREDITS/AWARDS PRIVACY/COPYRIGHT GLOSSARY LINKS
FirstGov 2014-Dec-20 01:35 UT
(server date/time)  
NASA Home Page
Site Manager:   Donald K. Yeomans
Webmaster  Alan B. Chamberlin